When you browse on this site, cookies collect data to enhance your experience and personalize the content and advertising you see.
Visit our Privacy Policy to learn more. By continuing to use the site, you agree to this use of cookies and data.
  • In Spain
  • List of Countries
  • For 7 days
  • Water Temperature
  • Satellite Maps
  • Weather Map
  • Weather Widgets
  • user-avatar
    Login

    Hourly Weather Medulin

    Today, 22 April, Monday

    Time Temperature Precipitation Wind Pressure Humidity
    00:00 +13°C° 0 mm 4 mps 761 mmHg 85%
    01:00 +13°C° 0 mm 4 mps 760 mmHg 86%
    02:00 +13°C° 0 mm 4 mps 760 mmHg 86%
    03:00 +13°C° 0 mm 4 mps 760 mmHg 86%
    04:00 +13°C° 0 mm 5 mps 760 mmHg 87%
    05:00 +13°C° 0 mm 5 mps 759 mmHg 83%
    06:00 +14°C° 0 mm 6 mps 759 mmHg 80%
    07:00 +15°C° 0 mm 7 mps 759 mmHg 76%
    08:00 +16°C° 0 mm 7 mps 758 mmHg 71%
    09:00 +17°C° 0 mm 8 mps 758 mmHg 66%
    10:00 +18°C° 0 mm 8 mps 757 mmHg 61%
    11:00 +18°C° 0 mm 9 mps 757 mmHg 62%
    12:00 +18°C° 0 mm 10 mps 756 mmHg 63%
    13:00 +18°C° 0 mm 10 mps 756 mmHg 64%
    14:00 +18°C° 0 mm 11 mps 755 mmHg 64%
    15:00 +18°C° 0 mm 11 mps 755 mmHg 64%
    16:00 +17°C° 0 mm 11 mps 754 mmHg 64%
    17:00 +17°C° 0 mm 11 mps 754 mmHg 66%
    18:00 +16°C° 0 mm 11 mps 754 mmHg 68%
    19:00 +14°C° 0 mm 11 mps 753 mmHg 71%
    20:00 +14°C° 0.6 mm 11 mps 754 mmHg 75%
    21:00 +13°C° 0.6 mm 12 mps 754 mmHg 79%
    22:00 +13°C° 0.6 mm 12 mps 754 mmHg 84%
    23:00 +13°C° 0.5 mm 13 mps 754 mmHg 82%

    Tomorrow, 23 April, Tuesday

    Time Temperature Precipitation Wind Pressure Humidity
    00:00 +13°C° 0.5 mm 13 mps 753 mmHg 81%
    01:00 +13°C° 0.5 mm 13 mps 753 mmHg 79%
    02:00 +13°C° 0 mm 13 mps 752 mmHg 79%
    03:00 +13°C° 0 mm 13 mps 752 mmHg 78%
    04:00 +13°C° 0 mm 12 mps 751 mmHg 78%
    05:00 +13°C° 0.1 mm 12 mps 751 mmHg 78%
    06:00 +13°C° 0.1 mm 12 mps 751 mmHg 78%
    07:00 +14°C° 0.1 mm 12 mps 751 mmHg 78%
    08:00 +14°C° 0 mm 13 mps 751 mmHg 77%
    09:00 +15°C° 0 mm 13 mps 751 mmHg 76%
    10:00 +15°C° 0 mm 14 mps 751 mmHg 75%
    11:00 +17°C° 0 mm 13 mps 751 mmHg 74%
    12:00 +17°C° 0 mm 13 mps 751 mmHg 73%
    13:00 +18°C° 0 mm 13 mps 751 mmHg 72%
    14:00 +18°C° 0.2 mm 12 mps 751 mmHg 74%
    15:00 +17°C° 0.2 mm 12 mps 751 mmHg 76%
    16:00 +17°C° 0.2 mm 12 mps 751 mmHg 78%
    17:00 +17°C° 0.8 mm 11 mps 751 mmHg 80%
    18:00 +16°C° 0.8 mm 11 mps 751 mmHg 81%
    19:00 +16°C° 0.8 mm 10 mps 752 mmHg 83%
    20:00 +16°C° 1.6 mm 9 mps 752 mmHg 84%
    21:00 +16°C° 1.6 mm 9 mps 753 mmHg 84%
    22:00 +16°C° 1.6 mm 8 mps 754 mmHg 84%
    23:00 +16°C° 0.8 mm 8 mps 754 mmHg 86%

    Day after tomorrow, 24 April, Wednesday

    Time Temperature Precipitation Wind Pressure Humidity
    00:00 +15°C° 0.8 mm 8 mps 755 mmHg 87%
    01:00 +15°C° 0.8 mm 7 mps 755 mmHg 88%
    02:00 +15°C° 0.2 mm 8 mps 755 mmHg 89%
    03:00 +15°C° 0.2 mm 8 mps 756 mmHg 90%
    04:00 +15°C° 0.2 mm 8 mps 756 mmHg 91%
    05:00 +15°C° 0 mm 8 mps 756 mmHg 90%
    06:00 +16°C° 0 mm 9 mps 757 mmHg 88%
    07:00 +16°C° 0 mm 9 mps 757 mmHg 87%
    08:00 +16°C° 0 mm 9 mps 758 mmHg 84%
    09:00 +17°C° 0 mm 9 mps 758 mmHg 81%
    10:00 +18°C° 0 mm 10 mps 759 mmHg 79%
    11:00 +18°C° 0 mm 9 mps 759 mmHg 76%
    12:00 +19°C° 0 mm 9 mps 759 mmHg 74%
    13:00 +19°C° 0 mm 9 mps 759 mmHg 72%
    14:00 +19°C° 0 mm 9 mps 759 mmHg 70%
    15:00 +20°C° 0 mm 8 mps 759 mmHg 69%
    16:00 +20°C° 0 mm 8 mps 759 mmHg 68%
    17:00 +18°C° 0 mm 7 mps 759 mmHg 71%
    18:00 +17°C° 0 mm 6 mps 759 mmHg 73%
    19:00 +16°C° 0 mm 5 mps 759 mmHg 75%
    20:00 +16°C° 0 mm 5 mps 760 mmHg 75%
    21:00 +15°C° 0 mm 5 mps 760 mmHg 75%
    22:00 +15°C° 0 mm 5 mps 760 mmHg 75%
    23:00 +15°C° 0 mm 5 mps 761 mmHg 74%

    25 April, Thursday

    Time Temperature Precipitation Wind Pressure Humidity
    00:00 +15°C° 0 mm 5 mps 761 mmHg 73%
    01:00 +15°C° 0 mm 5 mps 761 mmHg 73%
    02:00 +15°C° 0 mm 5 mps 761 mmHg 73%
    03:00 +15°C° 0 mm 5 mps 761 mmHg 74%
    04:00 +15°C° 0 mm 5 mps 761 mmHg 74%
    05:00 +15°C° 0 mm 5 mps 761 mmHg 74%
    06:00 +16°C° 0 mm 5 mps 761 mmHg 73%
    07:00 +17°C° 0 mm 6 mps 761 mmHg 72%
    08:00 +19°C° 0 mm 6 mps 761 mmHg 69%
    09:00 +20°C° 0 mm 6 mps 761 mmHg 66%
    10:00 +21°C° 0 mm 7 mps 761 mmHg 63%
    11:00 +22°C° 0 mm 7 mps 761 mmHg 62%
    12:00 +22°C° 0 mm 7 mps 760 mmHg 61%
    13:00 +22°C° 0 mm 7 mps 760 mmHg 60%
    14:00 +22°C° 0 mm 7 mps 760 mmHg 60%
    15:00 +22°C° 0 mm 6 mps 760 mmHg 60%
    16:00 +22°C° 0 mm 6 mps 760 mmHg 59%
    17:00 +21°C° 0 mm 5 mps 760 mmHg 63%
    18:00 +20°C° 0 mm 4 mps 760 mmHg 66%
    19:00 +18°C° 0 mm 4 mps 760 mmHg 70%
    20:00 +18°C° 0 mm 4 mps 760 mmHg 70%
    21:00 +18°C° 0 mm 4 mps 760 mmHg 70%
    22:00 +17°C° 0 mm 3 mps 760 mmHg 70%
    23:00 +17°C° 0 mm 3 mps 760 mmHg 69%

    26 April, Friday

    Time Temperature Precipitation Wind Pressure Humidity
    00:00 +17°C° 0 mm 3 mps 760 mmHg 68%
    01:00 +17°C° 0 mm 3 mps 760 mmHg 67%
    02:00 +17°C° 0 mm 4 mps 759 mmHg 67%
    03:00 +15°C° 0 mm 4 mps 759 mmHg 66%
    04:00 +15°C° 0 mm 4 mps 759 mmHg 66%
    05:00 +17°C° 0 mm 4 mps 759 mmHg 64%
    06:00 +17°C° 0 mm 5 mps 759 mmHg 63%
    07:00 +19°C° 0 mm 5 mps 759 mmHg 61%
    08:00 +20°C° 0 mm 6 mps 758 mmHg 58%
    09:00 +21°C° 0 mm 7 mps 758 mmHg 55%
    10:00 +23°C° 0 mm 8 mps 758 mmHg 52%
    11:00 +23°C° 0 mm 8 mps 758 mmHg 51%
    12:00 +23°C° 0 mm 9 mps 757 mmHg 50%
    13:00 +23°C° 0 mm 9 mps 757 mmHg 49%
    14:00 +22°C° 0.2 mm 9 mps 757 mmHg 53%
    15:00 +21°C° 0.2 mm 8 mps 756 mmHg 56%
    16:00 +20°C° 0.2 mm 8 mps 756 mmHg 59%
    17:00 +18°C° 0.6 mm 7 mps 756 mmHg 64%
    18:00 +17°C° 0.6 mm 5 mps 756 mmHg 70%
    19:00 +17°C° 0.6 mm 4 mps 756 mmHg 75%
    20:00 +17°C° 0.7 mm 3 mps 756 mmHg 77%
    21:00 +17°C° 0.7 mm 3 mps 757 mmHg 79%
    22:00 +16°C° 0.7 mm 2 mps 757 mmHg 82%
    23:00 +16°C° 0.3 mm 2 mps 757 mmHg 83%

    27 April, Saturday

    Time Temperature Precipitation Wind Pressure Humidity
    00:00 +16°C° 0.3 mm 2 mps 757 mmHg 84%
    01:00 +16°C° 0.3 mm 3 mps 757 mmHg 85%
    02:00 +16°C° 0.1 mm 3 mps 757 mmHg 85%
    03:00 +16°C° 0.1 mm 2 mps 757 mmHg 85%
    04:00 +16°C° 0.1 mm 2 mps 757 mmHg 85%
    05:00 +16°C° 0 mm 2 mps 757 mmHg 82%
    06:00 +16°C° 0 mm 3 mps 757 mmHg 79%
    07:00 +16°C° 0 mm 3 mps 758 mmHg 77%
    08:00 +17°C° 0 mm 3 mps 758 mmHg 71%
    09:00 +17°C° 0 mm 4 mps 758 mmHg 66%
    10:00 +18°C° 0 mm 4 mps 759 mmHg 61%
    11:00 +19°C° 0.4 mm 4 mps 759 mmHg 59%
    12:00 +19°C° 0.4 mm 5 mps 759 mmHg 57%
    13:00 +20°C° 0.4 mm 5 mps 759 mmHg 56%
    14:00 +19°C° 0.1 mm 5 mps 759 mmHg 55%
    15:00 +19°C° 0.1 mm 6 mps 759 mmHg 55%
    16:00 +17°C° 0.1 mm 7 mps 759 mmHg 55%
    17:00 +16°C° 0.6 mm 6 mps 759 mmHg 62%
    18:00 +14°C° 0.6 mm 6 mps 759 mmHg 69%
    19:00 +13°C° 0.6 mm 6 mps 759 mmHg 76%
    20:00 +13°C° 0.5 mm 6 mps 760 mmHg 75%
    21:00 +13°C° 0.5 mm 6 mps 760 mmHg 75%
    22:00 +13°C° 0.5 mm 6 mps 760 mmHg 75%
    23:00 +13°C° 0.2 mm 6 mps 760 mmHg 76%
    Show more